Flag for Germany Weather past 2 weeks in Homburg (Saar), Saarland, Germany

Now
37 °F

Passing clouds.


Feels Like: 34 °F
Forecast: 40 / 47 °F
Wind: 5 mph from Southwest

Location: Saarbruecken / Ensheim

Current Time: Dec 21, 2014 at 6:47:23 AM

Latest Report: Dec 21, 2014 at 6:20 AM


Visibility: N/A

Pressure: 30.48 "Hg

Humidity: 93%

Dew point: 36 °F

Location of Homburg (Saar)Location

Historic Weather in Homburg (Saar) — Graph

°F

Homburg (Saar) temperature yesterday

Maximum temperature yesterday: 43 °F (at 12:50 PM)
Minimum temperature yesterday: 36 °F (at 6:20 AM)
Average temperature yesterday: 40 °F

Past Weeks' High & Low Weather Summary

 TemperatureHumidityPressure
High52 °F (Dec 18, 1:20 PM)100% (Dec 6, 5:20 AM)30.48 "Hg (Dec 6, 5:20 AM)
Low32 °F (Dec 8, 9:20 PM)70% (Dec 7, 1:50 PM)29.65 "Hg (Dec 12, 4:50 PM)
Average41 °F92%30.05 "Hg
* Reported Dec 6 5:20 AM — Dec 21 5:50 AM, Homburg (Saar), Weather by CustomWeather, © 2014

Note: Actual official high and low records may vary slightly from our data, if they occured in-between our weather recording intervals... More about our weather records

Advertising

Homburg (Saar) weather history for previous 24 hours

 ConditionsComfort  
Time TempWeatherWind HumidityBarometerVisibility
5:50 AM
Dec 21
39 °FPartly cloudy.7 mph93%30.48 "HgN/A
5:20 AM39 °FPassing clouds.7 mph93%30.48 "HgN/A
4:50 AM39 °FPassing clouds.8 mph93%30.48 "HgN/A
4:20 AM39 °FPartly cloudy.9 mph93%30.48 "HgN/A
3:50 AM39 °FPartly cloudy.8 mph93%30.48 "HgN/A
3:20 AM39 °FPassing clouds.8 mph93%30.45 "HgN/A
2:50 AM41 °FPassing clouds.10 mph87%30.45 "HgN/A
2:20 AM41 °FPassing clouds.9 mph87%30.45 "HgN/A
1:20 AM41 °FPassing clouds.14 mph87%30.42 "HgN/A
12:50 AM41 °FPassing clouds.14 mph87%30.42 "HgN/A
12:20 AM41 °FPartly cloudy.15 mph87%30.42 "HgN/A
11:50 PM
Dec 20
41 °FPartly cloudy.13 mph87%30.39 "HgN/A
11:20 PM41 °FPartly cloudy.14 mph87%30.39 "HgN/A
10:50 PM41 °FPartly cloudy.12 mph87%30.39 "HgN/A
10:20 PM41 °FSprinkles. Passing clouds.15 mph87%30.36 "HgN/A
9:50 PM41 °FPassing clouds.17 mph87%30.36 "HgN/A
9:20 PM41 °FPassing clouds.17 mph87%30.36 "HgN/A
8:50 PM41 °FPassing clouds.14 mph87%30.33 "HgN/A
8:20 PM41 °FPartly cloudy.10 mph87%30.33 "HgN/A
7:50 PM41 °FPartly cloudy.12 mph87%30.33 "HgN/A
7:20 PM41 °FPartly cloudy.12 mph87%30.30 "HgN/A
6:50 PM41 °FPartly cloudy.14 mph87%30.30 "HgN/A
6:20 PM41 °FPassing clouds.14 mph93%30.27 "HgN/A
5:50 PM39 °FPartly cloudy.12 mph93%30.27 "HgN/A
5:20 PM39 °FPassing clouds.17 mph93%30.24 "HgN/A
4:50 PM37 °FSprinkles. Partly cloudy.18 mph93%30.27 "Hg4 mi
4:20 PM41 °FPartly sunny.17 mph93%30.24 "HgN/A
3:50 PM41 °FSprinkles. Broken clouds.17 mph93%30.24 "HgN/A
3:20 PM41 °FSprinkles. Broken clouds.10 mph93%30.21 "HgN/A
2:50 PM43 °FSprinkles. Partly sunny.18 mph81%30.21 "HgN/A
2:20 PM43 °FPartly sunny.20 mph81%30.21 "HgN/A
1:20 PM43 °FBroken clouds.17 mph76%30.24 "HgN/A
12:50 PM43 °FPartly sunny.15 mph76%30.24 "HgN/A
12:20 PM41 °FPartly sunny.16 mph81%30.24 "HgN/A
11:50 AM41 °FPartly sunny.16 mph87%30.27 "HgN/A
11:20 AM39 °FPartly sunny.16 mph87%30.27 "HgN/A
10:50 AM39 °FBroken clouds.15 mph93%30.27 "HgN/A
10:20 AM39 °FBroken clouds.15 mph87%30.30 "HgN/A
9:50 AM39 °FPartly sunny.10 mph87%30.30 "HgN/A
9:20 AM37 °FPartly sunny.13 mph93%30.30 "HgN/A
8:50 AM37 °FPartly sunny.12 mph93%30.30 "HgN/A
8:20 AM37 °FPassing clouds.12 mph93%30.30 "HgN/A
7:50 AM37 °FPassing clouds.13 mph93%30.30 "HgN/A
7:20 AM37 °FPassing clouds.12 mph93%30.27 "HgN/A
6:50 AM37 °FPassing clouds.8 mph93%30.27 "HgN/A
6:20 AM36 °FPassing clouds.9 mph100%30.27 "HgN/A
Weather by CustomWeather, © 2014

See weather overviewHow to use our weather pages